Weather History for Munising, MI

Change the Weather History Date:

Thursday, July 18, 2013

  Actual Average (KISQ) Record (KISQ)
Temperature  
Mean Temperature 75 °F -  
Max Temperature 86 °F 77 °F 90 °F (1955)
Min Temperature 66 °F 58 °F 39 °F (1971)
Cooling Degree Days 10    
Growing Degree Days 25 (Base 50)    
Moisture  
Dew Point 69 °F    
Average Humidity 84    
Maximum Humidity 97    
Minimum Humidity 63    
Precipitation  
Precipitation 1.79 in - - ()
Sea Level Pressure  
Sea Level Pressure 29.94 in    
Wind  
Wind Speed 6 mph (SSW)    
Max Wind Speed 20 mph    
Max Gust Speed 36 mph    
Averages and records for this station are not official NWS values.
T = Trace of Precipitation, MM = Missing Value Source: NWS Daily Summary

Daily Weather History Graph

Daily Weather History Graph

Search for Another Location

Airport:

Trip Planner

Search our weather history database for the weather conditions in past years. The results will help you decide how hot, cold, wet, or windy it might be!

Date:

Astronomy

Jul. 18, 2013 Rise Set
Actual Time 6:12 AM EDT 9:32 PM EDT
Civil Twilight 5:35 AM EDT 10:09 PM EDT
Nautical Twilight 4:46 AM EDT 10:57 PM EDT
Astronomical Twilight 3:44 AM EDT 11:58 PM EDT
Moon 5:27 PM EDT (7/18) 2:05 AM EDT (7/18)
Length of Visible Light 16h 34m
Length of Day
15h 20m
Waxing Gibbous, 77% of the Moon is Illuminated
Jul 18
Waxing Gibbous
Jul 22
Full
Jul 29
Last Quarter
Aug 6
New
Aug 14
First Quarter

Hourly Weather History & Observations

Time (EDT) Temp. Heat Index Dew Point Humidity Pressure Visibility Wind Dir Wind Speed Gust Speed Precip Events Conditions
12:56 AM 69.1 °F - 64.9 °F 87% 30.09 in - South 5.8 mph - N/A   Unknown
1:56 AM 69.1 °F - 64.9 °F 87% 30.07 in - SSE 3.5 mph - N/A   Unknown
2:56 AM 72.0 °F - 68.0 °F 87% 30.09 in - NW 19.6 mph 35.7 mph 0.10 in   Squalls
3:09 AM 71.6 °F - 69.8 °F 94% 30.09 in - NW 9.2 mph - 0.01 in   Unknown
3:56 AM 70.0 °F - 68.0 °F 93% 30.10 in - ENE 4.6 mph - 0.12 in   Unknown
4:56 AM 71.1 °F - 68.0 °F 90% 30.06 in - SW 3.5 mph - N/A   Unknown
5:56 AM 71.1 °F - 68.0 °F 90% 30.04 in - SSW 5.8 mph - N/A   Unknown
6:56 AM 71.1 °F - 68.0 °F 90% 30.05 in - Calm Calm - N/A   Unknown
7:56 AM 66.9 °F - 66.0 °F 97% 30.08 in - Calm Calm - 0.61 in   Unknown
8:56 AM 71.1 °F - 68.0 °F 90% 30.05 in - Calm Calm - 0.15 in   Unknown
9:56 AM 72.0 °F - 69.1 °F 91% 30.06 in - SSW 4.6 mph - 0.01 in   Unknown
10:56 AM 72.0 °F - 69.1 °F 91% 30.03 in - SW 3.5 mph - 0.07 in   Unknown
11:56 AM 72.0 °F - 70.0 °F 93% 30.02 in - Calm Calm - 0.20 in   Unknown
1:56 PM 82.0 °F 86.3 °F 71.1 °F 69% 29.93 in - South 10.4 mph 20.7 mph N/A   Unknown
2:56 PM 84.9 °F 90.7 °F 72.0 °F 65% 29.89 in - South 13.8 mph 21.9 mph N/A   Unknown
3:56 PM 84.9 °F 90.1 °F 71.1 °F 63% 29.85 in - South 12.7 mph 23.0 mph N/A   Unknown
4:56 PM 82.9 °F 87.0 °F 70.0 °F 65% 29.81 in - SSW 8.1 mph 20.7 mph N/A   Unknown
5:56 PM 84.0 °F 89.6 °F 72.0 °F 67% 29.79 in - SSW 9.2 mph - N/A   Unknown
6:56 PM 84.0 °F 90.2 °F 73.0 °F 69% 29.73 in - SSW 10.4 mph 19.6 mph 0.01 in   Unknown
7:56 PM 70.0 °F - 68.0 °F 93% 29.76 in - ENE 8.1 mph 29.9 mph 0.18 in   Unknown
8:56 PM 75.9 °F - 70.0 °F 82% 29.75 in - South 3.5 mph - 0.33 in   Unknown
9:56 PM 73.9 °F - 70.0 °F 87% 29.71 in - SSW 6.9 mph - 0.01 in   Unknown
10:56 PM 75.0 °F - 70.0 °F 84% 29.71 in - WSW 3.5 mph - N/A   Unknown
11:56 PM 75.9 °F - 71.1 °F 85% 29.70 in - South 5.8 mph - N/A   Unknown